Regional Weather Roundup
Issued by NWS Grand Forks, ND

Home | Current Version | Previous Version | Text Only | Print | Product List | Glossary Off
Versions: 1 2 3 4 5 6 7 8 9 10 11 12 13 14 15 16 17 18 19 20 21 22 23 24 25 26 27 28 29 30 31 32 33 34 35 36 37 38 39 40 41 42 43 44 45 46 47 48 49 50

000
ASUS43 KFGF 280231
RWRFGF
PRAIRIE TO PINES  WEATHER ROUNDUP
NATIONAL WEATHER SERVICE EASTERN NORTH DAKOTA/GRAND FORKS ND
900 PM CDT MON JUL 27 2015

 **SATELLITE DATA USED TO AUGMENT SKY COVER AT AUTOMATED STATIONS**
 *****  WEATHER ACROSS EASTERN NORTH DAKOTA  *****

CITY           SKY/WX    TMP DP  RH WIND       PRES   REMARKS
GRAND FORKS    PTCLDY    82  72  71 SE10      29.73S
GRAND FRKS AFB CLEAR     81  74  79 SE8       29.73F
GRAND FRKS NWS   N/A     81 N/A N/A SE6         N/A
DEVILS LAKE    CLEAR     81  68  65 SE17      29.69F
FARGO          CLEAR     83  71  67 SE14      29.75S
WAHPETON ARPT  CLEAR     79  68  69 SE10G16   29.77S
$$

 ***** WEATHER ACROSS CENTRAL AND WESTERN NORTH DAKOTA  *****

CITY           SKY/WX    TMP DP  RH WIND       PRES   REMARKS
BISMARCK       CLOUDY    83  72  69 SE10      29.65S
MINOT          MOCLDY    84  67  56 SE13      29.61F
JAMESTOWN      PTCLDY    81  74  79 SE15G23   29.71S
MINOT AFB      MOCLDY    82  74  77 SE12      29.59F
GARRISON         N/A     80  69  69 SE14      29.61F
WILLISTON      CLOUDY    87  65  47 SE14      29.50F
DICKINSON      CLOUDY    79  64  60 SE13      29.60F
HETTINGER      CLOUDY    68  58  70 E17G31    29.64F
$$

 *****  OTHER AIRPORT OBSERVATIONS IN OUR AREA  *****

CITY           SKY/WX    TMP DP  RH WIND       PRES   REMARKS
WALHALLA       FAIR      77  77 100 MISG      29.75R
GRAFTON AIRPOR FAIR      79  73  83 E8        29.75S
VALLEY CITY AR FAIR      81  77  89 SE15      29.74S
CANDO          CLOUDY    77  73  88 SE12      29.71S
CAVALIER APRT  FAIR      77  72  83 E5        29.75R
GWINNER          N/A     81  77  89 SE15      29.75R
ROLLA          CLOUDY    75  73  94 E9        29.73F
 ***** THE ABOVE OBSERVATIONS ARE NON NWS ARE NOT QUALITY
       CONTROLLED AND MAY MIS-REPORT RAIN FOR SNOW...
$$

  *****  WEATHER ACROSS NORTHERN MINNESOTA  *****

CITY           SKY/WX    TMP DP  RH WIND       PRES   REMARKS
FLAG ISLAND    PTCLDY    81  73  78 SE6       29.83S
WARROAD        CLEAR     79  73  83 SE6       29.84S
ROSEAU         CLEAR     77  72  83 SE6       29.82S
HALLOCK        CLEAR     79  72  78 E8        29.76S
THF RVR FALLS  CLEAR     77  70  78 E8        29.80S
BAUDETTE       CLEAR     79  67  66 S6        29.85S
WASKISH        CLEAR     73  68  83 CALM      29.86S
CROOKSTON      CLEAR     79  72  78 SE7       29.77S
STEPHEN NDAWN    N/A     79  73  83 E6          N/A
GREENBUSH NDAW   N/A     77  72  83 E5          N/A
$$
  *****  WEATHER ACROSS CENTRAL AND WEST MINNESOTA  *****

CITY           SKY/WX    TMP DP  RH WIND       PRES   REMARKS
FOSSTON        CLEAR     73  66  78 CALM      29.82S
BEMIDJI        PTCLDY    77  71  81 SE14      29.85F
PARK RAPIDS    PTCLDY    81  69  67 SE7       29.85F
ELBOW LAKE     FAIR      78  73  83 SE10G16   29.81R
WADENA         CLEAR     77  70  78 SE8       29.85S
DETROIT LAKES  CLEAR     79  70  73 SE13      29.83S
MOORHEAD       CLEAR     79  72  78 SE6       29.77S
FERGUS FALLS   CLEAR     81  72  74 SE13G18   29.78S
MORRIS MN      CLEAR     79  72  78 SE13      29.80S
STAPLES        CLEAR     77  70  78 SE6       29.86S
$$
  *****  WEATHER ELSEWHERE ACROSS MINNESOTA  *****

CITY           SKY/WX    TMP DP  RH WIND       PRES   REMARKS
DULUTH         PTCLDY    75  63  66 SE9       29.95S
INTRNTL FALLS  PTCLDY    75  65  70 SE5       29.88S
ELY            CLEAR     73  57  56 SE5       29.95S
CLOQUET        PTCLDY    75  64  69 E3        29.95R
WHEATON        CLEAR     75  72  88 SE13G21   29.79R
BRAINERD       PTCLDY    78  70  76 SE7       29.88S
HIBBING        CLEAR     75  65  70 SE5       29.93R
ALEXANDRIA     CLEAR     78  72  81 SE13      29.86S
SAINT CLOUD    CLEAR     79  72  79 SE8       29.86F
MINNEAPOLIS    PTCLDY    81  72  74 SE9       29.89S
$$

  *****  WEATHER ACROSS SOUTH DAKOTA  *****

CITY           SKY/WX    TMP DP  RH WIND       PRES   REMARKS
SIOUX FALLS    PTCLDY    81  73  76 S13       29.78F
BROOKINGS      CLEAR     79  72  78 SE10      29.81S
WATERTOWN      CLEAR     80  70  71 SE7       29.78F
HURON          PTCLDY    82  75  79 SE9       29.70S
SISSETON         N/A     80  74  81 SE13G21   29.75S
ABERDEEN       CLEAR     80  70  71 SE9       29.71S
MITCHELL       CLEAR     83  70  64 SE12      29.73R
PIERRE         PTCLDY    86  68  54 SE16      29.64R
MOBRIDGE       MOCLDY    85  74  69 SE21G28   29.64R HX  92
RAPID CITY     CLOUDY    67  63  87 SE8       29.69R
$$

  *****  SOME WEATHER IN NEARBY STATES *****

CITY           SKY/WX    TMP DP  RH WIND       PRES   REMARKS
GLASGOW MT     LGT RAIN  59  56  89 W28G43    29.64R
GREAT FALLS MT LGT RAIN  51  48  89 W12       30.00R
CHEYENNE WY    PTCLDY    83  38  20 W21G28    29.91R
SCOTTSBLUFF NE MOCLDY    73  62  68 SE6       29.74F
OMAHA NE       PTCLDY    78  70  76 SE16      29.84S
DES MOINES IA  MOCLDY    74  67  78 S10       29.89S
DAVENPORT IA   CLOUDY    77  72  84 SE6       29.96S
CHICAGO IL     MOCLDY    77  64  64 NE7       30.00R
EAU CLAIRE WI  CLEAR     79  68  69 SE6       29.94S
LA CROSSE WI   PTCLDY    80  69  69 SE6       29.93S
$$

  *****  SOME NATIONAL WEATHER *****

CITY           SKY/WX    TMP DP  RH WIND       PRES   REMARKS
LA GUARDIA NY  MOCLDY    79  68  69 S8        30.01R
RALEIGH NC     MOCLDY    81  70  69 S3        30.00R
ATLANTA GA     MOCLDY    83  68  60 N6        29.98R
NEW ORLEANS LA MOCLDY    84  72  67 S6        29.94S
OKLAHOMA CITY  PTCLDY    85  71  63 S8        29.88S HX  90
ALBUQUERQUE NM MOCLDY    88  48  25 S10       30.04R
SALT LAKE CITY PTCLDY    74  37  26 N14       30.06R
LOS ANGELES CA MOSUNNY   71  64  78 W13       29.87S
BOISE ID       SUNNY     72  33  24 NW18      30.09R
SEATTLE WA     PTSUNNY   71  48  43 NW6       30.22R
$$

*** WEATHER ACROSS MANITOBA...SASKATCHEWAN AND ONTARIO ***
                ***ONTARIO***

CITY           SKY/WX    TMP DP  RH WIND       PRES   REMARKS
GERALDTON      PTCLDY    77  64  65 SW3       29.94
THUNDER BAY    PTCLDY    70  64  83 CALM      29.94S
SIOUX LOOKOUT  PTCLDY    70  68  94 CALM      29.90S
TORONTO        PTCLDY    82  61  47 N9        30.00R
BIG TROUT LK   MOCLDY    73  57  56 NW5       29.84R
PICKLE LAKE    MOCLDY    81  64  57 W5        29.89R
DRYDEN         CLEAR     81  63  54 S5        29.90R
KENORA         PTCLDY    81  64  57 SE6       29.88S
$$
                *** MANITOBA***

CITY           SKY/WX    TMP DP  RH WIND       PRES   REMARKS
BRANDON        MOCLDY    77  70  78 E10       29.74S
DAUPHIN        MOCLDY    70  61  73 NE5       29.79F
ISLAND LAKE    PTCLDY    73  61  64 CALM      29.87R
PILOT MOUND      N/A     73  70  88 E8          N/A
THE PAS        MOCLDY    70  55  60 VRB2      29.87S
THOMPSON       MOCLDY    72  59  64 CALM      29.84S
WINNIPEG       PTCLDY    81  70  69 SE9       29.78S
LYNN LAKE      CLEAR     72  50  46 SW5       29.83R
CHURCHILL      PTCLDY    68  61  77 W7        29.74R
GILLAM         MOCLDY    73  57  56 W6        29.82R
$$
                ***SASKATCHEWAN***

CITY           SKY/WX    TMP DP  RH WIND       PRES   REMARKS
ESTEVAN        MOCLDY    79  70  73 E18       29.57F
KINDERSLEY     LGT RAIN  59  59 100 N8        29.87F
LLOYDMINSTER   CLOUDY    63  55  77 NW6       29.92S
PRINCE ALBERT  MOCLDY    64  61  88 N5        29.85F
REGINA         TSTM      61  59  94 NW12G20   29.66F
YORKTON        MOCLDY    63  57  82 N10       29.75F
N. BATTLEFORD  PTCLDY    59  57  94 N6        29.90F
LA RONGE       MOCLDY    72  54  53 S6        29.85S
SASKATOON      MOCLDY    63  61  94 N13       29.83F
SWIFT CURRENT  TSTM      59 N/A N/A N14       29.76R
$$
NOTE: THESE ARE AUTOMATED STATIONS WITH LIMITED QUALITY CONTROL
      "FAIR" INDICATES FEW OR NO CLOUDS BELOW 12,000 FEET WITH NO
      SIGNIFICANT WEATHER AND/OR OBSTRUCTIONS TO VISIBILITY.
      SKY/WX - SKY CONDITION AND SIGNIFICANT WEATHER.
      TMP - AIR TEMPERATURE.    DP   - DEWPOINT TEMPERATURE.
      RH  - RELATIVE HUMIDITY.  PRES - PRESSURE.
      HX  - HEAT INDEX.         WCI  - WIND CHILL INDEX.
$



USA.gov is the U.S. government's official web portal to all federal, state and local government web resources and services.